Tacoma, WA

7:42 PM PST on February 24, 2017 (GMT -0800)
McChord Air Force Base

Weather History for KTCM - September, 2011

Change the Weather History Date:

Friday, September 9, 2011

  Actual Average Record
Temperature  
Mean Temperature 66 °F -  
Max Temperature 83 °F 70 °F 90 °F (1963)
Min Temperature 49 °F 48 °F 37 °F (1959)
Cooling Degree Days 1    
Growing Degree Days 16 (Base 50)    
Moisture  
Dew Point 52 °F    
Average Humidity 63    
Maximum Humidity 94    
Minimum Humidity 32    
Precipitation  
Precipitation 0.00 in - - ()
Sea Level Pressure  
Sea Level Pressure 30.16 in    
Wind  
Wind Speed 3 mph (North)    
Max Wind Speed 14 mph    
Max Gust Speed -    
Visibility 10 miles    
Events Rain    
Averages and records for this station are not official NWS values.
T = Trace of Precipitation, MM = Missing Value Source: NWS Daily Summary

Daily Weather History Graph

Daily Weather History Graph

Search for Another Location

Airport or City:

Trip Planner

Search our weather history database for the weather conditions in past years. The results will help you decide how hot, cold, wet, or windy it might be!

Date:

Astronomy

Sep. 09, 2011 Rise Set
Actual Time 6:39 AM PDT 7:34 PM PDT
Civil Twilight 6:08 AM PDT 8:05 PM PDT
Nautical Twilight 5:31 AM PDT 8:42 PM PDT
Astronomical Twilight 4:51 AM PDT 9:21 PM PDT
Moon 6:07 PM PDT (9/9) 3:57 AM PDT (9/9)
Length of Visible Light 13h 56m
Length of Day
12h 54m
Waxing Gibbous, 94% of the Moon is Illuminated
Sep 9
Waxing Gibbous
Sep 12
Full
Sep 20
Last Quarter
Sep 27
New
Oct 3
First Quarter

Hourly Weather History & Observations

Time (PDT) Temp. Heat Index Dew Point Humidity Pressure Visibility Wind Dir Wind Speed Gust Speed Precip Events Conditions
12:55 AM 55.4 °F - 49.5 °F 80% 30.19 in 10.0 mi Calm Calm - N/A   Clear
1:55 AM 54.5 °F - 50.9 °F 88% 30.20 in 10.0 mi Calm Calm - N/A   Clear
2:55 AM 52.7 °F - 50.0 °F 91% 30.20 in 10.0 mi Calm Calm - N/A   Clear
3:55 AM 52.2 °F - 50.4 °F 94% 30.21 in 10.0 mi Calm Calm - N/A   Clear
4:55 AM 51.3 °F - 49.6 °F 94% 30.21 in 10.0 mi Calm Calm - N/A   Clear
5:55 AM 50.2 °F - 48.6 °F 94% 30.21 in 10.0 mi Calm Calm - N/A   Clear
6:55 AM 49.6 °F - 47.8 °F 94% 30.22 in 10.0 mi Calm Calm - N/A   Clear
7:55 AM 54.9 °F - 51.3 °F 88% 30.23 in 10.0 mi Calm Calm - N/A   Clear
8:55 AM 62.1 °F - 53.4 °F 73% 30.22 in 10.0 mi Calm Calm - N/A   Clear
9:55 AM 69.1 °F - 55.0 °F 61% 30.22 in 10.0 mi Calm Calm - N/A   Clear
10:55 AM 73.8 °F - 56.1 °F 54% 30.21 in 10.0 mi Variable 6.9 mph - N/A   Clear
11:52 AM 75.2 °F - 57.2 °F 53% 30.19 in 10.0 mi NNE 6.9 mph - N/A Rain Light Rain
11:55 AM 75.4 °F - 56.3 °F 51% 30.19 in 10.0 mi North 10.4 mph - 0.00 in   Light Drizzle
12:08 PM 75.2 °F - 55.4 °F 50% 30.18 in 10.0 mi North 6.9 mph - N/A   Clear
12:10 PM 75.2 °F - 55.4 °F 50% 30.18 in 10.0 mi North 9.2 mph - N/A   Light Drizzle
12:21 PM 77.0 °F - 55.4 °F 47% 30.18 in 10.0 mi NNW 8.1 mph - N/A   Clear
12:55 PM 78.8 °F - 55.8 °F 45% 30.17 in 10.0 mi North 6.9 mph - 0.00 in   Clear
1:55 PM 81.1 °F 80.7 °F 53.8 °F 39% 30.15 in 10.0 mi NNE 8.1 mph - N/A   Clear
2:55 PM 82.6 °F 81.6 °F 54.0 °F 37% 30.13 in 10.0 mi North 13.8 mph - N/A   Clear
3:55 PM 83.1 °F - 51.6 °F 34% 30.11 in 10.0 mi North 11.5 mph - N/A   Clear
4:55 PM 83.3 °F - 50.4 °F 32% 30.09 in 10.0 mi North 10.4 mph - N/A   Clear
5:55 PM 81.9 °F - 50.5 °F 34% 30.08 in 10.0 mi NNE 8.1 mph - N/A   Clear
6:55 PM 79.3 °F - 49.8 °F 36% 30.07 in 10.0 mi NNE 6.9 mph - N/A   Clear
7:55 PM 72.9 °F - 50.7 °F 46% 30.07 in 10.0 mi NNE 4.6 mph - N/A   Clear
8:55 PM 64.0 °F - 50.4 °F 61% 30.08 in 10.0 mi Calm Calm - N/A   Clear
9:55 PM 59.9 °F - 52.9 °F 78% 30.08 in 10.0 mi Calm Calm - N/A   Clear
10:55 PM 59.5 °F - 52.5 °F 78% 30.08 in 10.0 mi Calm Calm - N/A   Clear
11:55 PM 55.4 °F - 51.3 °F 86% 30.07 in 10.0 mi Calm Calm - N/A   Clear